Regional Weather Roundup
Issued by NWS State College, PA

Current Version | Previous Version | Text Only | Print | Product List | Glossary On
Versions: 1 2 3 4 5 6 7 8 9 10 11 12 13 14 15 16 17 18 19 20 21 22 23 24 25 26 27 28 29 30 31 32 33 34 35 36 37 38 39 40 41 42 43 44 45 46 47 48 49 50
000
ASUS41 KCTP 090310
RWRCTP

REGIONAL WEATHER ROUNDUP
NATIONAL WEATHER SERVICE STATE COLLEGE PA
1000 PM EST MON FEB 08 2016

Note: "fair" indicates few or no clouds below 12,000 feet with no
significant weather and/or obstructions to visibility.

* = STATION THAT DOES NOT REPORT PRECIPITATION /E.G. RAIN...SNOW...ETC/
    THUNDER OR FOG.

PAZ002>004-007>009-013>016-020>023-029>032-090400-
WESTERN PENNSYLVANIA

CITY           SKY/WX    TMP DP  RH WIND       PRES   REMARKS
ERIE           CLOUDY    35  31  85 SW9       29.56S
MEADVILLE      LGT SNOW  32  29  88 SW5       29.55S FOG
FRANKLIN*      CLOUDY    32  28  86 SW7       29.57S
NEW CASTLE     CLOUDY    33  29  85 W5        29.60S
BEAVER COUNTY  NOT AVBL
BUTLER*        CLOUDY    34  28  80 W6        29.62S
PITTSBURGH INT CLOUDY    33  30  88 SW5       29.59S
PITTSBURGH     CLOUDY    36  30  79 SW7       29.59F
INDIANA*       CLOUDY    34  34 100 W10       29.61S
LATROBE        CLOUDY    34  32  93 W7        29.61S
WASHINGTON CO* CLOUDY    32  28  86 CALM      29.61S
$$

PAZ004>006-010>012-017>019-024>028-033>037-041-042-045-046-049>053-090400-
CENTRAL PENNSYLVANIA

CITY           SKY/WX    TMP DP  RH WIND       PRES   REMARKS
BRADFORD       CLOUDY    31  25  78 SE7       29.53F
DUBOIS         CLOUDY    30  28  92 SE6       29.54S
CLEARFIELD     CLOUDY    33  26  75 E5        29.58F
JOHNSTOWN      CLOUDY    31  24  75 S6        29.55S
ALTOONA        CLOUDY    33  27  78 S6        29.60S
STATE COLLEGE  CLOUDY    34  29  83 CALM      29.61F
WILLIAMSPORT   LGT SNOW  34  31  88 MISG      29.66F FOG
SELINSGROVE    LGT SNOW  33  31  92 CALM      29.68F FOG
FT INDIANTOWN  LGT SNOW  32  32 100 NE2       29.69F FOG
CAPITAL CITY   LGT SNOW  34  31  88 E7        29.69F FOG
HARRISBURG     LGT SNOW  34  31  88 E7        29.69S
YORK           CLOUDY    35  33  92 E6        29.68S
$$

PAZ038>040-043-044-047-048-054-055-060>062-067>071-090400-
EASTERN PENNSYLVANIA

CITY           SKY/WX    TMP DP  RH WIND       PRES   REMARKS
SCRANTON       CLOUDY    33  16  49 SE8G18    29.65F
MOUNT POCONO   CLOUDY    26  13  57 E10       29.64F
ALLENTOWN      CLOUDY    36  22  56 SE6       29.72F
QUAKERTOWN*    CLOUDY    32  25  74 SE10      29.74R
READING        LGT SNOW  33  29  85 SE9       29.71S FOG
LANCASTER      LGT SNOW  32  32 100 E5        29.70F VSB 3/4
COATESVILLE    LGT SNOW  32  32 100 SE6       29.72S
POTTSTOWN      LGT SNOW  31  28  89 CALM      29.75S FOG
BLUE BELL        N/A     32  28  86 SE3       29.74S
DOYLESTOWN     CLOUDY    31  24  75 VRB6      29.74S
WILLOW GROVE   NOT AVBL
NORTH PHILA    FLURRIES  33  27  78 E8        29.78S
PHILADELPHIA   LGT SNOW  33  27  78 SE9       29.76F
$$



USA.gov is the U.S. government's official web portal to all federal, state and local government web resources and services.